GW0996 Weather Reports


time (UTC)temp
C
wind
direction
speed
KPH
gust
KPH
rain 1hr
cm
rain 24hr
cm
rain mn
cm
humidity
%
barometer
mb
20260905084649 28 305 0.0 1.6 0.00 0.00 0.00 43 1018.0
20260905083647 28 303 0.0 1.6 0.00 0.00 0.00 49 1018.2
20260905083135 28 308 0.0 3.2 0.00 0.00 0.00 46 1018.1
20260905082640 27 309 1.6 3.2 0.00 0.00 0.00 49 1018.1
20260905082139 27 160 0.0 0.0 0.00 0.00 0.00 48 1018.0
20260905081622 27 160 0.0 0.0 0.00 0.00 0.00 51 1018.0
20260905080623 26 160 0.0 0.0 0.00 0.00 0.00 53 1018.0
20260905075627 26 160 0.0 0.0 0.00 0.00 0.00 52 1017.7
20260905074624 25 160 0.0 1.6 0.00 0.00 0.00 52 1017.6
20260905073624 24 154 0.0 1.6 0.00 0.00 0.00 56 1017.8
20260905073125 23 274 0.0 1.6 0.00 0.00 0.00 58 1017.8
20260905072110 22 266 0.0 1.6 0.00 0.00 0.00 63 1017.7
20260905071612 22 246 0.0 1.6 0.00 0.00 0.00 63 1017.8
20260905071110 22 247 0.0 1.6 0.00 0.00 0.00 61 1017.9
20260905070559 21 247 0.0 1.6 0.00 0.00 0.00 66 1017.9
20260905065559 20 247 0.0 1.6 0.00 0.00 0.00 69 1017.7
20260905065047 20 247 0.0 1.6 0.00 0.00 0.00 69 1017.5
20260905064546 20 246 0.0 0.0 0.00 0.00 0.00 67 1017.5
20260905064051 20 246 0.0 0.0 0.00 0.00 0.00 68 1017.8
20260905063533 19 247 0.0 0.0 0.00 0.00 0.00 69 1017.9
20260905063040 19 247 0.0 1.6 0.00 0.00 0.00 71 1017.9
20260905062534 18 248 1.6 1.6 0.00 0.00 0.00 71 1017.9
20260905062039 18 247 0.0 1.6 0.00 0.00 0.00 73 1017.9
20260905061536 18 247 0.0 1.6 0.00 0.00 0.00 73 1017.9
20260905061035 17 263 1.6 1.6 0.00 0.00 0.00 72 1017.9
20260905060534 17 263 0.0 1.6 0.00 0.00 0.00 75 1018.1
20260905060033 17 263 0.0 1.6 0.00 0.00 0.00 75 1018.0
20260905055521 16 265 0.0 1.6 0.00 0.00 0.00 76 1017.9
20260905055039 16 265 0.0 0.0 0.00 0.00 0.00 78 1018.0
20260905054522 15 274 0.0 0.0 0.00 0.00 0.00 80 1018.0
20260905054030 15 274 0.0 0.0 0.00 0.00 0.00 83 1017.9
20260905053526 15 274 0.0 0.0 0.00 0.00 0.00 84 1018.1
20260905053031 14 274 0.0 0.0 0.00 0.00 0.00 84 1018.1
20260905052512 14 274 0.0 0.0 0.00 0.00 0.00 84 1018.0
20260905052014 14 274 0.0 0.0 0.00 0.00 0.00 83 1018.1
20260905051446 14 274 0.0 0.0 0.00 0.00 0.00 84 1018.1
20260905050953 14 274 0.0 0.0 0.00 0.00 0.00 83 1018.1
20260905050454 14 274 0.0 0.0 0.00 0.00 0.00 84 1017.9
20260905045950 14 274 0.0 0.0 0.00 0.00 0.00 84 1018.0
20260905045436 14 274 0.0 0.0 0.00 0.00 0.00 84 1017.9
20260905044939 14 274 0.0 0.0 0.00 0.00 0.00 83 1017.7
20260905044437 14 275 0.0 0.0 0.00 0.00 0.00 83 1018.0
20260905043948 14 275 0.0 0.0 0.00 0.00 0.00 83 1017.9
20260905043437 14 275 0.0 0.0 0.00 0.00 0.00 83 1017.6
20260905042940 14 275 0.0 0.0 0.00 0.00 0.00 83 1017.8
20260905042441 14 275 0.0 0.0 0.00 0.00 0.00 83 1017.7
20260905041939 14 275 0.0 1.6 0.00 0.00 0.00 82 1017.6
20260905041437 14 275 0.0 1.6 0.00 0.00 0.00 81 1017.5
20260905040434 15 274 0.0 0.0 0.00 0.00 0.00 80 1017.7
20260905035936 15 274 0.0 1.6 0.00 0.00 0.00 80 1017.7
20260905035436 15 274 0.0 1.6 0.00 0.00 0.00 81 1017.6
20260905034936 15 274 0.0 0.0 0.00 0.00 0.00 80 1017.4
20260905034424 15 274 0.0 1.6 0.00 0.00 0.00 80 1017.5
20260905033924 15 274 0.0 1.6 0.00 0.00 0.00 80 1017.7
20260905033422 14 274 0.0 0.0 0.00 0.00 0.00 81 1017.4
20260905032927 15 274 0.0 0.0 0.00 0.00 0.00 80 1017.6
20260905031426 15 274 0.0 0.0 0.00 0.00 0.00 79 1017.6
20260905030930 15 274 0.0 0.0 0.00 0.00 0.00 78 1017.8
20260905030422 15 274 0.0 0.0 0.00 0.00 0.00 77 1017.7
20260905025927 15 274 0.0 0.0 0.00 0.00 0.00 76 1017.7
20260905024358 15 274 0.0 1.6 0.00 0.00 0.00 74 1017.8
20260905023848 15 275 1.6 1.6 0.00 0.00 0.00 75 1017.8
20260905023346 15 274 0.0 0.0 0.00 0.00 0.00 75 1017.7
20260905022835 15 274 0.0 0.0 0.00 0.00 0.00 75 1017.6
20260905022334 15 274 0.0 0.0 0.00 0.00 0.00 73 1017.7
20260905021836 15 274 0.0 0.0 0.00 0.00 0.00 73 1017.5
20260905021336 15 273 0.0 0.0 0.00 0.00 0.00 73 1017.6
20260905020838 15 275 0.0 0.0 0.00 0.00 0.00 73 1017.6
20260905020323 15 275 0.0 0.0 0.00 0.00 0.00 72 1017.6
20260905015824 15 275 0.0 0.0 0.00 0.00 0.00 71 1017.3
20260905015324 15 274 0.0 0.0 0.00 0.00 0.00 72 1017.7
20260905014821 16 274 0.0 0.0 0.00 0.00 0.00 71 1017.5
20260905014326 16 275 0.0 1.6 0.00 0.00 0.00 71 1017.5
20260905013827 16 276 0.0 1.6 0.00 0.00 0.00 72 1017.5
20260905013325 16 275 0.0 0.0 0.00 0.00 0.00 71 1017.7
20260905012328 16 275 0.0 0.0 0.00 0.00 0.00 70 1017.5
20260905011821 16 275 0.0 0.0 0.00 0.00 0.00 70 1017.6
20260905011323 16 275 0.0 0.0 0.00 0.00 0.00 70 1017.4
20260905010824 16 275 0.0 0.0 0.00 0.00 0.00 71 1017.5
20260905010325 16 275 0.0 0.0 0.00 0.00 0.00 71 1017.3
20260905005823 16 275 0.0 0.0 0.00 0.00 0.00 72 1017.5
20260905005327 16 275 0.0 0.0 0.00 0.00 0.00 71 1017.7
20260905004328 16 275 0.0 0.0 0.00 0.00 0.00 71 1017.6
20260905003824 17 275 0.0 0.0 0.00 0.00 0.00 71 1017.6
20260905003324 17 275 0.0 0.0 0.00 0.00 0.00 70 1017.6
20260905002826 17 280 0.0 0.0 0.00 0.00 0.00 68 1017.7
20260905002331 17 280 0.0 0.0 0.00 0.00 0.00 69 1017.8
20260905001822 17 280 0.0 0.0 0.00 0.00 0.00 69 1017.7
20260905001326 17 280 0.0 0.0 0.00 0.00 0.00 69 1017.7
20260905000828 17 280 0.0 0.0 0.00 0.00 0.00 69 1017.8
20260905000325 17 280 0.0 0.0 0.00 0.00 0.00 68 1017.7
20260904235758 17 280 0.0 0.0 0.00 0.00 0.00 68 1017.6
20260904235306 17 280 0.0 1.6 0.00 0.00 0.00 68 1017.8
20260904234237 17 277 0.0 3.2 0.00 0.00 0.00 69 1017.8
20260904233721 17 263 0.0 0.0 0.00 0.00 0.00 69 1017.8
20260904233224 17 263 0.0 0.0 0.00 0.00 0.00 68 1017.9
20260904232726 18 263 0.0 0.0 0.00 0.00 0.00 68 1018.0
20260904232225 18 263 0.0 0.0 0.00 0.00 0.00 68 1018.1
20260904231724 18 263 0.0 0.0 0.00 0.00 0.00 67 1017.9
20260904231222 18 263 0.0 0.0 0.00 0.00 0.00 67 1017.8
20260904230722 18 263 0.0 0.0 0.00 0.00 0.00 67 1017.8
20260904230224 18 263 0.0 0.0 0.00 0.00 0.00 67 1018.0
20260904225711 18 263 0.0 0.0 0.00 0.00 0.00 66 1017.9
20260904224654 18 263 0.0 0.0 0.00 0.00 0.00 66 1017.8
20260904223649 18 278 0.0 0.0 0.00 0.00 0.00 66 1017.9
20260904222637 19 279 0.0 0.0 0.00 0.00 0.00 64 1017.8
20260904222142 19 279 0.0 0.0 0.00 0.00 0.00 63 1017.8
20260904221637 19 279 0.0 1.6 0.00 0.00 0.00 63 1017.9
20260904220636 20 279 0.0 0.0 0.00 0.00 0.00 62 1018.0
20260904220133 20 279 0.0 1.6 0.00 0.00 0.00 61 1018.1
20260904215138 20 278 0.0 0.0 0.00 0.00 0.00 61 1018.0
20260904214639 20 280 0.0 0.0 0.00 0.00 0.00 60 1017.9
20260904214137 20 280 0.0 0.0 0.00 0.00 0.00 60 1017.8
20260904213639 21 280 0.0 0.0 0.00 0.00 0.00 59 1017.7
20260904213136 21 281 0.0 0.0 0.00 0.00 0.00 57 1017.9
20260904212637 21 281 0.0 0.0 0.00 0.00 0.00 57 1018.0
20260904212136 21 281 0.0 1.6 0.00 0.00 0.00 57 1017.9
20260904211134 21 278 0.0 1.6 0.00 0.00 0.00 56 1018.1
20260904210636 21 273 0.0 0.0 0.00 0.00 0.00 56 1018.0
20260904210133 22 274 0.0 1.6 0.00 0.00 0.00 56 1017.9
20260904205637 22 278 0.0 1.6 0.00 0.00 0.00 55 1018.0
20260904205136 22 248 0.0 0.0 0.00 0.00 0.00 56 1018.0
20260904204633 22 240 0.0 0.0 0.00 0.00 0.00 56 1017.8
20260904204134 22 240 0.0 0.0 0.00 0.00 0.00 55 1017.7
20260904203645 22 240 0.0 0.0 0.00 0.00 0.00 55 1017.8
20260904203137 22 240 0.0 0.0 0.00 0.00 0.00 56 1017.9
20260904202638 22 242 0.0 0.0 0.00 0.00 0.00 56 1017.9
20260904201637 23 215 0.0 0.0 0.00 0.00 0.00 55 1017.9
20260904201137 23 215 0.0 0.0 0.00 0.00 0.00 54 1017.8
20260904200639 23 225 0.0 0.0 0.00 0.00 0.00 53 1017.9
20260904200135 23 227 0.0 0.0 0.00 0.00 0.00 53 1017.9
20260904195634 24 235 0.0 0.0 0.00 0.00 0.00 52 1017.7
20260904194133 24 196 0.0 0.0 0.00 0.00 0.00 51 1017.9
20260904193636 24 196 0.0 0.0 0.00 0.00 0.00 51 1017.6
20260904193144 25 196 0.0 1.6 0.00 0.00 0.00 50 1017.6
20260904192636 25 200 0.0 1.6 0.00 0.00 0.00 49 1017.7
20260904192138 25 201 0.0 1.6 0.00 0.00 0.00 49 1017.6
20260904191626 25 195 0.0 1.6 0.00 0.00 0.00 49 1017.5
20260904191127 25 140 0.0 1.6 0.00 0.00 0.00 48 1017.6
20260904190624 26 110 0.0 1.6 0.00 0.00 0.00 46 1017.6
20260904190122 26 96 0.0 1.6 0.00 0.00 0.00 45 1017.5
20260904185625 27 12 0.0 1.6 0.00 0.00 0.00 42 1017.5
20260904185121 27 333 0.0 1.6 0.00 0.00 0.00 40 1017.5
20260904184626 28 23 0.0 3.2 0.00 0.00 0.00 39 1017.3
20260904184124 28 305 0.0 3.2 0.00 0.00 0.00 37 1017.2
20260904183621 29 303 0.0 3.2 0.00 0.00 0.00 36 1017.1
20260904183122 30 305 0.0 4.8 0.00 0.00 0.00 34 1017.4
20260904182632 30 310 0.0 6.4 0.00 0.00 0.00 33 1017.0
20260904182113 30 346 4.8 6.4 0.00 0.00 0.00 32 1016.9
20260904181612 30 318 1.6 9.7 0.00 0.00 0.00 32 1016.9
20260904181111 30 307 4.8 9.7 0.00 0.00 0.00 33 1017.0
20260904180611 31 309 1.6 9.7 0.00 0.00 0.00 34 1016.7
20260904180118 31 322 4.8 12.9 0.00 0.00 0.00 33 1016.6
20260904175610 31 323 4.8 12.9 0.00 0.00 0.00 34 1016.6
20260904175110 31 309 4.8 14.5 0.00 0.00 0.00 34 1016.6
20260904174557 31 326 9.7 14.5 0.00 0.00 0.00 35 1016.6
20260904174058 31 317 6.4 9.7 0.00 0.00 0.00 37 1016.4
20260904173534 31 307 3.2 9.7 0.00 0.00 0.00 37 1016.3
20260904173036 31 332 0.0 9.7 0.00 0.00 0.00 37 1016.4
20260904172036 31 305 0.0 11.3 0.00 0.00 0.00 36 1016.3
20260904171539 31 300 4.8 11.3 0.00 0.00 0.00 36 1016.3
20260904171038 32 277 1.6 9.7 0.00 0.00 0.00 37 1016.2
20260904170041 32 314 0.0 6.4 0.00 0.00 0.00 36 1016.2
20260904165034 32 100 0.0 3.2 0.00 0.00 0.00 36 1016.3
20260904164034 32 310 1.6 12.9 0.00 0.00 0.00 35 1016.3
20260904163535 33 328 1.6 14.5 0.00 0.00 0.00 34 1016.4
20260904163036 33 329 8.0 14.5 0.00 0.00 0.00 34 1016.4
20260904162533 33 58 0.0 6.4 0.00 0.00 0.00 33 1016.4
20260904161524 33 312 6.4 11.3 0.00 0.00 0.00 32 1016.3
20260904161027 33 324 1.6 11.3 0.00 0.00 0.00 33 1016.1
20260904160528 33 320 3.2 11.3 0.00 0.00 0.00 33 1015.8
20260904160023 33 322 1.6 6.4 0.00 0.00 0.00 33 1016.0
20260904155023 33 326 1.6 6.4 0.00 0.00 0.00 33 1016.2
20260904154521 34 339 3.2 3.2 0.00 0.00 0.00 34 1016.1
20260904154021 34 47 0.0 6.4 0.00 0.00 0.00 34 1016.0
20260904153523 34 308 6.4 11.3 0.00 0.00 0.00 33 1016.0
20260904153022 34 313 6.4 11.3 0.00 0.00 0.00 33 1016.1
20260904152523 34 298 1.6 14.5 0.00 0.00 0.00 33 1016.0
20260904152024 34 7 6.4 14.5 0.00 0.00 0.00 32 1016.2
20260904151525 34 313 1.6 11.3 0.00 0.00 0.00 32 1016.1
20260904150528 34 314 0.0 9.7 0.00 0.00 0.00 30 1016.1
20260904150023 34 310 0.0 9.7 0.00 0.00 0.00 30 1016.3
20260904145525 34 327 4.8 14.5 0.00 0.00 0.00 31 1016.2
20260904145024 34 319 8.0 14.5 0.00 0.00 0.00 30 1016.3
20260904144523 34 334 4.8 12.9 0.00 0.00 0.00 31 1016.0
20260904144021 34 166 0.0 16.1 0.00 0.00 0.00 31 1016.2
20260904143530 35 318 3.2 16.1 0.00 0.00 0.00 31 1016.1
20260904143024 34 322 3.2 12.9 0.00 0.00 0.00 31 1016.3
20260904142522 34 305 6.4 14.5 0.00 0.00 0.00 30 1016.4
20260904142024 34 327 4.8 14.5 0.00 0.00 0.00 31 1016.3
20260904141521 34 319 4.8 12.9 0.00 0.00 0.00 31 1016.5
20260904141022 34 322 6.4 17.7 0.00 0.00 0.00 31 1016.4
20260904140527 34 342 0.0 17.7 0.00 0.00 0.00 31 1016.3
20260904140026 34 305 0.0 12.9 0.00 0.00 0.00 32 1016.4
20260904135526 35 322 6.4 17.7 0.00 0.00 0.00 32 1016.6
20260904135028 35 317 1.6 17.7 0.00 0.00 0.00 32 1016.6
20260904134526 36 318 3.2 16.1 0.00 0.00 0.00 32 1016.5
20260904134022 37 317 4.8 16.1 0.00 0.00 0.00 29 1016.6
20260904133027 37 147 0.0 1.6 0.00 0.00 0.00 25 1016.5
20260904132522 37 152 0.0 3.2 0.00 0.00 0.00 26 1016.5
20260904132025 37 348 0.0 9.7 0.00 0.00 0.00 26 1016.6
20260904131525 37 331 1.6 9.7 0.00 0.00 0.00 26 1016.5
20260904131029 37 241 0.0 3.2 0.00 0.00 0.00 24 1016.6
20260904130527 37 214 0.0 3.2 0.00 0.00 0.00 24 1016.6
20260904130028 37 355 1.6 3.2 0.00 0.00 0.00 25 1016.6
20260904125526 36 142 1.6 3.2 0.00 0.00 0.00 24 1016.8
20260904125033 37 46 0.0 3.2 0.00 0.00 0.00 26 1017.0
20260904124525 37 97 3.2 3.2 0.00 0.00 0.00 25 1016.7
20260904124024 37 228 1.6 3.2 0.00 0.00 0.00 25 1016.9
20260904123527 37 205 0.0 1.6 0.00 0.00 0.00 24 1017.1
20260904123026 37 162 0.0 1.6 0.00 0.00 0.00 26 1017.0
20260904122525 37 159 0.0 3.2 0.00 0.00 0.00 26 1016.9
20260904122010 36 150 0.0 3.2 0.00 0.00 0.00 26 1016.9
20260904121512 36 216 0.0 4.8 0.00 0.00 0.00 25 1017.2
20260904120958 36 148 0.0 4.8 0.00 0.00 0.00 26 1017.2
20260904120457 36 315 0.0 4.8 0.00 0.00 0.00 26 1017.3
20260904120007 36 131 0.0 3.2 0.00 0.00 0.00 24 1017.1
20260904115449 36 307 0.0 3.2 0.00 0.00 0.00 26 1017.2
20260904114948 36 306 1.6 6.4 0.00 0.00 0.00 24 1017.4
20260904114448 36 183 0.0 6.4 0.00 0.00 0.00 24 1017.4
20260904113939 35 241 0.0 3.2 0.00 0.00 0.00 23 1017.5
20260904112439 35 200 3.2 6.4 0.00 0.00 0.00 25 1017.8
20260904111437 35 276 0.0 3.2 0.00 0.00 0.00 27 1017.6
20260904110436 36 86 3.2 3.2 0.00 0.00 0.00 27 1018.0
20260904105937 35 135 1.6 3.2 0.00 0.00 0.00 27 1018.0
20260904105439 35 264 0.0 3.2 0.00 0.00 0.00 27 1017.9
20260904104937 35 146 1.6 4.8 0.00 0.00 0.00 28 1017.9
20260904104434 35 304 1.6 4.8 0.00 0.00 0.00 28 1017.9
20260904103936 35 221 0.0 3.2 0.00 0.00 0.00 28 1018.1
20260904103437 35 295 0.0 1.6 0.00 0.00 0.00 27 1018.2
20260904102424 35 162 0.0 1.6 0.00 0.00 0.00 32 1018.4
20260904101925 35 163 0.0 1.6 0.00 0.00 0.00 29 1018.3
20260904101426 34 163 0.0 1.6 0.00 0.00 0.00 31 1018.4
20260904100924 33 178 1.6 1.6 0.00 0.00 0.00 33 1018.6
20260904100425 33 145 1.6 1.6 0.00 0.00 0.00 33 1018.6
20260904095425 33 134 0.0 1.6 0.00 0.00 0.00 36 1018.4
20260904094424 32 134 0.0 1.6 0.00 0.00 0.00 39 1018.5
20260904093924 32 134 0.0 1.6 0.00 0.00 0.00 39 1018.6
20260904093421 31 135 0.0 1.6 0.00 0.00 0.00 41 1018.9
20260904092924 31 135 1.6 1.6 0.00 0.00 0.00 42 1018.9
20260904092422 31 136 0.0 1.6 0.00 0.00 0.00 42 1018.8
20260904091925 31 128 0.0 1.6 0.00 0.00 0.00 45 1018.8
20260904091424 31 128 0.0 0.0 0.00 0.00 0.00 42 1019.0
20260904090925 30 128 0.0 1.6 0.00 0.00 0.00 43 1018.9
20260904090422 30 128 1.6 1.6 0.00 0.00 0.00 42 1019.0
20260904085930 30 130 0.0 0.0 0.00 0.00 0.00 44 1019.1
20260904085422 30 130 0.0 1.6 0.00 0.00 0.00 45 1019.1